Time,TemperatureF,DewpointF,PressureIn,WindDirection,WindDirectionDegrees,WindSpeedMPH,WindSpeedGustMPH,Humidity,HourlyPrecipIn,Conditions,Clouds,dailyrainin,SoftwareType,DateUTC
2013-01-20 00:04:00,67.0,-99.9,30.11,WNW,288,6.0,8.0,-999,-99.99,,,-99.99,,2013-01-20 05:04:00,
2013-01-20 00:12:00,67.0,-99.9,30.11,WNW,299,7.0,9.0,-999,-99.99,,,-99.99,,2013-01-20 05:12:00,
2013-01-20 00:23:00,67.0,-99.9,30.11,WNW,296,7.0,9.0,-999,-99.99,,,-99.99,,2013-01-20 05:23:00,
2013-01-20 00:33:00,67.0,-99.9,30.11,WNW,288,6.0,8.0,-999,-99.99,,,-99.99,,2013-01-20 05:33:00,
2013-01-20 00:43:00,67.0,-99.9,30.10,WNW,293,6.0,8.0,-999,-99.99,,,-99.99,,2013-01-20 05:43:00,
2013-01-20 00:53:00,67.0,-99.9,30.10,WNW,299,6.0,8.0,-999,-99.99,,,-99.99,,2013-01-20 05:53:00,
2013-01-20 01:02:00,67.0,-99.9,30.10,WNW,285,7.0,9.0,-999,-99.99,,,-99.99,,2013-01-20 06:02:00,
2013-01-20 01:12:00,66.0,-99.9,30.10,WNW,293,6.0,8.0,-999,-99.99,,,-99.99,,2013-01-20 06:12:00,
2013-01-20 01:22:00,66.0,-99.9,30.10,WNW,290,6.0,8.0,-999,-99.99,,,-99.99,,2013-01-20 06:22:00,
2013-01-20 01:34:00,66.0,-99.9,30.10,WNW,302,7.0,10.0,-999,-99.99,,,-99.99,,2013-01-20 06:34:00,
2013-01-20 01:43:00,66.0,-99.9,30.10,NW,308,6.0,8.0,-999,-99.99,,,-99.99,,2013-01-20 06:43:00,
2013-01-20 01:53:00,66.0,-99.9,30.10,WNW,302,6.0,8.0,-999,-99.99,,,-99.99,,2013-01-20 06:53:00,
2013-01-20 02:02:00,66.0,-99.9,30.10,NW,304,5.0,8.0,-999,-99.99,,,-99.99,,2013-01-20 07:02:00,
2013-01-20 02:12:00,66.0,-99.9,30.10,West,272,5.0,6.0,-999,-99.99,,,-99.99,,2013-01-20 07:12:00,
2013-01-20 02:22:00,66.0,-99.9,30.09,WNW,284,5.0,7.0,-999,-99.99,,,-99.99,,2013-01-20 07:22:00,
2013-01-20 02:32:00,66.0,-99.9,30.09,NW,305,8.0,9.0,-999,-99.99,,,-99.99,,2013-01-20 07:32:00,
2013-01-20 02:43:00,66.0,-99.9,30.09,NW,304,7.0,8.0,-999,-99.99,,,-99.99,,2013-01-20 07:43:00,
2013-01-20 02:52:00,66.0,-99.9,30.08,NW,306,6.0,8.0,-999,-99.99,,,-99.99,,2013-01-20 07:52:00,
2013-01-20 03:02:00,67.0,-99.9,30.08,NW,321,6.0,8.0,-999,-99.99,,,-99.99,,2013-01-20 08:02:00,
2013-01-20 03:12:00,67.0,-99.9,30.08,NW,315,7.0,9.0,-999,-99.99,,,-99.99,,2013-01-20 08:12:00,
2013-01-20 03:22:00,67.0,-99.9,30.08,NW,316,7.0,9.0,-999,-99.99,,,-99.99,,2013-01-20 08:22:00,
2013-01-20 03:32:00,67.0,-99.9,30.08,NW,305,6.0,8.0,-999,-99.99,,,-99.99,,2013-01-20 08:32:00,
2013-01-20 03:42:00,67.0,-99.9,30.08,WNW,297,5.0,7.0,-999,-99.99,,,-99.99,,2013-01-20 08:42:00,
2013-01-20 03:53:00,67.0,-99.9,30.08,WNW,303,5.0,7.0,-999,-99.99,,,-99.99,,2013-01-20 08:53:00,
2013-01-20 04:02:00,67.0,-99.9,30.08,NW,305,5.0,6.0,-999,-99.99,,,-99.99,,2013-01-20 09:02:00,
2013-01-20 04:12:00,66.0,-99.9,30.07,WNW,301,5.0,6.0,-999,-99.99,,,-99.99,,2013-01-20 09:12:00,
2013-01-20 04:22:00,66.0,-99.9,30.07,WNW,288,4.0,6.0,-999,-99.99,,,-99.99,,2013-01-20 09:22:00,
2013-01-20 04:33:00,66.0,-99.9,30.07,NW,307,7.0,8.0,-999,-99.99,,,-99.99,,2013-01-20 09:33:00,
2013-01-20 04:43:00,66.0,-99.9,30.08,WNW,302,6.0,8.0,-999,-99.99,,,-99.99,,2013-01-20 09:43:00,
2013-01-20 04:53:00,67.0,-99.9,30.08,NW,310,5.0,8.0,-999,-99.99,,,-99.99,,2013-01-20 09:53:00,
2013-01-20 05:03:00,66.0,-99.9,30.08,NW,307,7.0,9.0,-999,-99.99,,,-99.99,,2013-01-20 10:03:00,
2013-01-20 05:12:00,66.0,-99.9,30.08,NW,310,6.0,8.0,-999,-99.99,,,-99.99,,2013-01-20 10:12:00,
2013-01-20 05:23:00,66.0,-99.9,30.08,NW,306,7.0,9.0,-999,-99.99,,,-99.99,,2013-01-20 10:23:00,
2013-01-20 05:33:00,66.0,-99.9,30.08,NW,314,8.0,11.0,-999,-99.99,,,-99.99,,2013-01-20 10:33:00,
2013-01-20 05:42:00,66.0,-99.9,30.08,NW,312,9.0,12.0,-999,-99.99,,,-99.99,,2013-01-20 10:42:00,
2013-01-20 05:53:00,66.0,-99.9,30.09,NW,314,10.0,12.0,-999,-99.99,,,-99.99,,2013-01-20 10:53:00,
2013-01-20 06:03:00,66.0,-99.9,30.09,NW,313,10.0,11.0,-999,-99.99,,,-99.99,,2013-01-20 11:03:00,
2013-01-20 06:12:00,66.0,-99.9,30.09,NW,316,8.0,12.0,-999,-99.99,,,-99.99,,2013-01-20 11:12:00,
2013-01-20 06:22:00,66.0,-99.9,30.09,NW,310,8.0,9.0,-999,-99.99,,,-99.99,,2013-01-20 11:22:00,
2013-01-20 06:33:00,66.0,-99.9,30.09,NW,305,8.0,10.0,-999,-99.99,,,-99.99,,2013-01-20 11:33:00,
2013-01-20 06:43:00,66.0,-99.9,30.10,WNW,303,9.0,11.0,-999,-99.99,,,-99.99,,2013-01-20 11:43:00,
2013-01-20 06:54:00,66.0,-99.9,30.10,NW,308,8.0,11.0,-999,-99.99,,,-99.99,,2013-01-20 11:54:00,
2013-01-20 07:03:00,66.0,-99.9,30.10,NW,309,9.0,10.0,-999,-99.99,,,-99.99,,2013-01-20 12:03:00,
2013-01-20 07:13:00,66.0,-99.9,30.10,WNW,298,7.0,8.0,-999,-99.99,,,-99.99,,2013-01-20 12:13:00,
2013-01-20 07:23:00,66.0,-99.9,30.10,NW,304,6.0,8.0,-999,-99.99,,,-99.99,,2013-01-20 12:23:00,
2013-01-20 07:34:00,66.0,-99.9,30.11,WNW,301,7.0,9.0,-999,-99.99,,,-99.99,,2013-01-20 12:34:00,
2013-01-20 07:43:00,66.0,-99.9,30.11,NW,309,6.0,9.0,-999,-99.99,,,-99.99,,2013-01-20 12:43:00,
2013-01-20 07:53:00,66.0,-99.9,30.11,NW,309,6.0,8.0,-999,-99.99,,,-99.99,,2013-01-20 12:53:00,
2013-01-20 08:03:00,66.0,-99.9,30.11,NW,306,6.0,9.0,-999,-99.99,,,-99.99,,2013-01-20 13:03:00,
2013-01-20 08:12:00,67.0,-99.9,30.12,WNW,296,6.0,8.0,-999,-99.99,,,-99.99,,2013-01-20 13:12:00,
2013-01-20 08:23:00,67.0,-99.9,30.12,WNW,291,5.0,7.0,-999,-99.99,,,-99.99,,2013-01-20 13:23:00,
2013-01-20 08:33:00,67.0,-99.9,30.13,WNW,293,5.0,7.0,-999,-99.99,,,-99.99,,2013-01-20 13:33:00,
2013-01-20 08:43:00,68.0,-99.9,30.13,NW,309,4.0,6.0,-999,-99.99,,,-99.99,,2013-01-20 13:43:00,
2013-01-20 08:53:00,68.0,-99.9,30.14,NW,320,6.0,8.0,-999,-99.99,,,-99.99,,2013-01-20 13:53:00,
2013-01-20 09:03:00,68.0,-99.9,30.14,NW,309,5.0,7.0,-999,-99.99,,,-99.99,,2013-01-20 14:03:00,
2013-01-20 09:12:00,69.0,-99.9,30.14,NNW,329,6.0,6.0,-999,-99.99,,,-99.99,,2013-01-20 14:12:00,
2013-01-20 09:23:00,69.0,-99.9,30.14,NW,321,6.0,7.0,-999,-99.99,,,-99.99,,2013-01-20 14:23:00,
2013-01-20 09:33:00,69.0,-99.9,30.14,NW,314,5.0,6.0,-999,-99.99,,,-99.99,,2013-01-20 14:33:00,
2013-01-20 09:43:00,70.0,-99.9,30.14,NW,312,4.0,6.0,-999,-99.99,,,-99.99,,2013-01-20 14:43:00,
2013-01-20 09:53:00,71.0,-99.9,30.15,NNW,328,4.0,6.0,-999,-99.99,,,-99.99,,2013-01-20 14:53:00,
2013-01-20 10:04:00,71.0,-99.9,30.15,NW,320,4.0,6.0,-999,-99.99,,,-99.99,,2013-01-20 15:04:00,
2013-01-20 10:13:00,72.0,-99.9,30.15,NW,313,4.0,6.0,-999,-99.99,,,-99.99,,2013-01-20 15:13:00,
2013-01-20 10:23:00,72.0,-99.9,30.15,NW,326,4.0,6.0,-999,-99.99,,,-99.99,,2013-01-20 15:23:00,
2013-01-20 10:33:00,72.0,-99.9,30.15,NNW,338,5.0,9.0,-999,-99.99,,,-99.99,,2013-01-20 15:33:00,
2013-01-20 10:43:00,72.0,-99.9,30.15,NNW,339,6.0,9.0,-999,-99.99,,,-99.99,,2013-01-20 15:43:00,
2013-01-20 10:53:00,73.0,-99.9,30.15,NNW,343,6.0,9.0,-999,-99.99,,,-99.99,,2013-01-20 15:53:00,
2013-01-20 11:03:00,73.0,-99.9,30.14,North,351,7.0,10.0,-999,-99.99,,,-99.99,,2013-01-20 16:03:00,
2013-01-20 11:12:00,73.0,-99.9,30.14,North,8,10.0,11.0,-999,-99.99,,,-99.99,,2013-01-20 16:12:00,
2013-01-20 11:23:00,73.0,-99.9,30.14,North,9,8.0,11.0,-999,-99.99,,,-99.99,,2013-01-20 16:23:00,
2013-01-20 11:33:00,73.0,-99.9,30.14,NNE,13,9.0,11.0,-999,-99.99,,,-99.99,,2013-01-20 16:33:00,
2013-01-20 11:43:00,73.0,-99.9,30.13,North,10,10.0,11.0,-999,-99.99,,,-99.99,,2013-01-20 16:43:00,
2013-01-20 11:53:00,73.0,-99.9,30.13,NNE,13,9.0,11.0,-999,-99.99,,,-99.99,,2013-01-20 16:53:00,
2013-01-20 12:03:00,73.0,-99.9,30.12,NNE,12,10.0,12.0,-999,-99.99,,,-99.99,,2013-01-20 17:03:00,
2013-01-20 12:13:00,73.0,-99.9,30.11,NNE,24,11.0,12.0,-999,-99.99,,,-99.99,,2013-01-20 17:13:00,
2013-01-20 12:23:00,73.0,-99.9,30.11,NNE,16,10.0,13.0,-999,-99.99,,,-99.99,,2013-01-20 17:23:00,
2013-01-20 12:33:00,73.0,-99.9,30.10,NNE,17,10.0,11.0,-999,-99.99,,,-99.99,,2013-01-20 17:33:00,
2013-01-20 12:43:00,73.0,-99.9,30.09,NNE,17,10.0,13.0,-999,-99.99,,,-99.99,,2013-01-20 17:43:00,
2013-01-20 12:53:00,73.0,-99.9,30.09,NNE,26,10.0,11.0,-999,-99.99,,,-99.99,,2013-01-20 17:53:00,
2013-01-20 13:03:00,73.0,-99.9,30.08,NNE,21,11.0,13.0,-999,-99.99,,,-99.99,,2013-01-20 18:03:00,
2013-01-20 13:13:00,73.0,-99.9,30.08,NNE,14,12.0,14.0,-999,-99.99,,,-99.99,,2013-01-20 18:13:00,
2013-01-20 13:24:00,73.0,-99.9,30.07,NNE,19,13.0,15.0,-999,-99.99,,,-99.99,,2013-01-20 18:24:00,
2013-01-20 13:33:00,72.0,-99.9,30.06,NNE,16,14.0,16.0,-999,-99.99,,,-99.99,,2013-01-20 18:33:00,
2013-01-20 13:43:00,73.0,-99.9,30.06,NNE,14,13.0,15.0,-999,-99.99,,,-99.99,,2013-01-20 18:43:00,
2013-01-20 13:53:00,73.0,-99.9,30.06,North,9,14.0,16.0,-999,-99.99,,,-99.99,,2013-01-20 18:53:00,
2013-01-20 14:03:00,73.0,-99.9,30.05,North,9,15.0,18.0,-999,-99.99,,,-99.99,,2013-01-20 19:03:00,
2013-01-20 14:12:00,73.0,-99.9,30.05,NNE,12,14.0,16.0,-999,-99.99,,,-99.99,,2013-01-20 19:12:00,
2013-01-20 14:23:00,73.0,-99.9,30.05,North,9,15.0,16.0,-999,-99.99,,,-99.99,,2013-01-20 19:23:00,
2013-01-20 14:33:00,73.0,-99.9,30.04,NNE,13,13.0,17.0,-999,-99.99,,,-99.99,,2013-01-20 19:33:00,
2013-01-20 14:43:00,73.0,-99.9,30.04,North,11,11.0,13.0,-999,-99.99,,,-99.99,,2013-01-20 19:43:00,
2013-01-20 14:53:00,73.0,-99.9,30.04,North,11,12.0,13.0,-999,-99.99,,,-99.99,,2013-01-20 19:53:00,
2013-01-20 15:03:00,73.0,-99.9,30.04,NNE,19,13.0,16.0,-999,-99.99,,,-99.99,,2013-01-20 20:03:00,
2013-01-20 15:12:00,73.0,-99.9,30.04,North,10,14.0,15.0,-999,-99.99,,,-99.99,,2013-01-20 20:12:00,
2013-01-20 15:23:00,73.0,-99.9,30.03,North,9,15.0,17.0,-999,-99.99,,,-99.99,,2013-01-20 20:23:00,
2013-01-20 15:33:00,73.0,-99.9,30.03,North,9,15.0,17.0,-999,-99.99,,,-99.99,,2013-01-20 20:33:00,
2013-01-20 15:43:00,73.0,-99.9,30.03,NNE,12,17.0,19.0,-999,-99.99,,,-99.99,,2013-01-20 20:43:00,
2013-01-20 15:54:00,73.0,-99.9,30.03,North,9,17.0,19.0,-999,-99.99,,,-99.99,,2013-01-20 20:54:00,
2013-01-20 16:04:00,73.0,-99.9,30.03,NNE,15,17.0,19.0,-999,-99.99,,,-99.99,,2013-01-20 21:04:00,
2013-01-20 16:13:00,74.0,-99.9,30.04,North,6,17.0,19.0,-999,-99.99,,,-99.99,,2013-01-20 21:13:00,
2013-01-20 16:23:00,73.0,-99.9,30.04,North,6,20.0,22.0,-999,-99.99,,,-99.99,,2013-01-20 21:23:00,
2013-01-20 16:34:00,73.0,-99.9,30.04,North,6,18.0,21.0,-999,-99.99,,,-99.99,,2013-01-20 21:34:00,
2013-01-20 16:43:00,73.0,-99.9,30.04,NNE,14,19.0,22.0,-999,-99.99,,,-99.99,,2013-01-20 21:43:00,
2013-01-20 16:54:00,73.0,-99.9,30.04,North,9,18.0,21.0,-999,-99.99,,,-99.99,,2013-01-20 21:54:00,
2013-01-20 17:03:00,73.0,-99.9,30.05,North,6,19.0,22.0,-999,-99.99,,,-99.99,,2013-01-20 22:03:00,
2013-01-20 17:13:00,73.0,-99.9,30.05,NNW,347,18.0,20.0,-999,-99.99,,,-99.99,,2013-01-20 22:13:00,
2013-01-20 17:23:00,73.0,-99.9,30.04,North,7,17.0,20.0,-999,-99.99,,,-99.99,,2013-01-20 22:23:00,
2013-01-20 17:34:00,73.0,-99.9,30.04,North,7,17.0,21.0,-999,-99.99,,,-99.99,,2013-01-20 22:34:00,
2013-01-20 17:43:00,74.0,-99.9,30.04,North,11,17.0,20.0,-999,-99.99,,,-99.99,,2013-01-20 22:43:00,
2013-01-20 17:53:00,74.0,-99.9,30.04,North,7,18.0,20.0,-999,-99.99,,,-99.99,,2013-01-20 22:53:00,
2013-01-20 18:03:00,74.0,-99.9,30.05,North,5,18.0,20.0,-999,-99.99,,,-99.99,,2013-01-20 23:03:00,
2013-01-20 18:13:00,74.0,-99.9,30.04,North,10,17.0,21.0,-999,-99.99,,,-99.99,,2013-01-20 23:13:00,
2013-01-20 18:23:00,74.0,-99.9,30.04,NNE,18,17.0,20.0,-999,-99.99,,,-99.99,,2013-01-20 23:23:00,
2013-01-20 18:33:00,74.0,-99.9,30.05,NNE,19,15.0,18.0,-999,-99.99,,,-99.99,,2013-01-20 23:33:00,
2013-01-20 18:43:00,74.0,-99.9,30.05,NNE,12,16.0,18.0,-999,-99.99,,,-99.99,,2013-01-20 23:43:00,
2013-01-20 18:53:00,74.0,-99.9,30.05,NNE,18,17.0,20.0,-999,-99.99,,,-99.99,,2013-01-20 23:53:00,
2013-01-20 19:03:00,74.0,-99.9,30.05,NNE,14,15.0,17.0,-999,-99.99,,,-99.99,,2013-01-21 00:03:00,
2013-01-20 19:13:00,74.0,-99.9,30.05,NNE,29,14.0,17.0,-999,-99.99,,,-99.99,,2013-01-21 00:13:00,
2013-01-20 19:23:00,74.0,-99.9,30.05,NNE,30,14.0,16.0,-999,-99.99,,,-99.99,,2013-01-21 00:23:00,
2013-01-20 19:33:00,74.0,-99.9,30.05,NNE,26,14.0,17.0,-999,-99.99,,,-99.99,,2013-01-21 00:33:00,
2013-01-20 19:43:00,74.0,-99.9,30.05,NNE,21,13.0,16.0,-999,-99.99,,,-99.99,,2013-01-21 00:43:00,
2013-01-20 19:54:00,74.0,-99.9,30.05,NE,38,14.0,16.0,-999,-99.99,,,-99.99,,2013-01-21 00:54:00,
2013-01-20 20:03:00,74.0,-99.9,30.05,NE,38,15.0,18.0,-999,-99.99,,,-99.99,,2013-01-21 01:03:00,
2013-01-20 20:13:00,74.0,-99.9,30.06,NNE,31,16.0,19.0,-999,-99.99,,,-99.99,,2013-01-21 01:13:00,
2013-01-20 20:23:00,74.0,-99.9,30.06,NE,41,16.0,17.0,-999,-99.99,,,-99.99,,2013-01-21 01:23:00,
2013-01-20 20:33:00,74.0,-99.9,30.06,NNE,29,15.0,16.0,-999,-99.99,,,-99.99,,2013-01-21 01:33:00,
2013-01-20 20:44:00,74.0,-99.9,30.06,NE,35,14.0,17.0,-999,-99.99,,,-99.99,,2013-01-21 01:44:00,
2013-01-20 20:53:00,74.0,-99.9,30.06,NNE,32,14.0,17.0,-999,-99.99,,,-99.99,,2013-01-21 01:53:00,
2013-01-20 21:03:00,74.0,-99.9,30.06,NE,44,13.0,16.0,-999,-99.99,,,-99.99,,2013-01-21 02:03:00,
2013-01-20 21:13:00,74.0,-99.9,30.06,NE,42,14.0,16.0,-999,-99.99,,,-99.99,,2013-01-21 02:13:00,
2013-01-20 21:23:00,74.0,-99.9,30.06,NE,40,14.0,16.0,-999,-99.99,,,-99.99,,2013-01-21 02:23:00,
2013-01-20 21:34:00,74.0,-99.9,30.06,NE,44,13.0,15.0,-999,-99.99,,,-99.99,,2013-01-21 02:34:00,
2013-01-20 21:43:00,74.0,-99.9,30.06,NE,41,13.0,16.0,-999,-99.99,,,-99.99,,2013-01-21 02:43:00,
2013-01-20 21:53:00,74.0,-99.9,30.07,NE,36,13.0,16.0,-999,-99.99,,,-99.99,,2013-01-21 02:53:00,
2013-01-20 22:03:00,74.0,-99.9,30.07,NE,38,14.0,17.0,-999,-99.99,,,-99.99,,2013-01-21 03:03:00,
2013-01-20 22:13:00,74.0,-99.9,30.07,NE,45,13.0,16.0,-999,-99.99,,,-99.99,,2013-01-21 03:13:00,
2013-01-20 22:23:00,74.0,-99.9,30.07,NNE,32,13.0,16.0,-999,-99.99,,,-99.99,,2013-01-21 03:23:00,
2013-01-20 22:33:00,74.0,-99.9,30.07,NE,49,16.0,18.0,-999,-99.99,,,-99.99,,2013-01-21 03:33:00,
2013-01-20 22:44:00,74.0,-99.9,30.07,NNE,33,16.0,19.0,-999,-99.99,,,-99.99,,2013-01-21 03:44:00,
2013-01-20 22:54:00,74.0,-99.9,30.07,NE,47,15.0,18.0,-999,-99.99,,,-99.99,,2013-01-21 03:54:00,
2013-01-20 23:03:00,74.0,-99.9,30.06,NE,45,15.0,19.0,-999,-99.99,,,-99.99,,2013-01-21 04:03:00,
2013-01-20 23:13:00,74.0,-99.9,30.07,NE,42,17.0,19.0,-999,-99.99,,,-99.99,,2013-01-21 04:13:00,
2013-01-20 23:23:00,74.0,-99.9,30.06,NE,49,16.0,19.0,-999,-99.99,,,-99.99,,2013-01-21 04:23:00,
2013-01-20 23:33:00,74.0,-99.9,30.06,NE,49,15.0,18.0,-999,-99.99,,,-99.99,,2013-01-21 04:33:00,
2013-01-20 23:43:00,74.0,-99.9,30.06,ENE,62,16.0,17.0,-999,-99.99,,,-99.99,,2013-01-21 04:43:00,
2013-01-20 23:53:00,74.0,-99.9,30.06,ENE,58,15.0,17.0,-999,-99.99,,,-99.99,,2013-01-21 04:53:00,